Tenerife, El Salvador

7:45 PM WEST en Octubre 17, 2017 (GMT +0100)
Tenerife

Tiempo Historia de GCXO - Octubre, 2017

Change the Weather History Date:

Jueves, Octubre 12, 2017

  Actual Average Record
Temperature  
Temperatura media 74 ° F -  
Temperatura máxima 86 ° F 68 ° F 86 ° F (2017)
Temperatura mínima 62 ° F 57 ° F 57 ° F (2001)
Cooling Degree Days 9    
Growing Degree Days 24 (Base 50)    
Moisture  
Punto de rocío 51 ° F    
Average Humidity 44    
Maximum Humidity 73    
Minimum Humidity 17    
Precipitación  
Precipitación 0.00 pul - - ()
Presión al nivel del mar  
Presión al nivel del mar 30.13 pul    
Viento  
Velocidad del viento 5 mph ()    
Velocidad máxima del viento 10 mph    
Max Gust Speed -    
Visibilidad 11.5 Millas    
Eventos      
Averages and records for this station are not official NWS values.
T = Trace of Precipitation, MM = Missing Value Source: Averaged Metar Reports

Daily Weather History Graph

Daily Weather History Graph

Search for Another Location

Airport or City:

Trip Planner

Search our weather history database for the weather conditions in past years. The results will help you decide how hot, cold, wet, or windy it might be!

Date:

Astronomía

Oct. 12, 2017 Salida Puesta
Hora real 8:04 AM WEST 7:38 PM WEST
Crepúsculo civil 7:40 AM WEST 8:02 PM WEST
Crepúsculo náutico 7:13 AM WEST 8:29 PM WEST
Crepúsculo astronómico 6:45 AM WEST 8:57 PM WEST
Luna 12:48 AM WEST (10/12) 2:47 PM WEST (10/12)
Horas de luz 12h 21m
Horas de luz
11h 34m
Gibosa menguante, 51% of the Moon is Illuminated
Oct 12
Gibosa menguante
Oct 12
Cuarto menguante
Oct 19
Nueva
Oct 27
Cuarto creciente
Nov 4
Luna llena

Hourly Weather History & Observations

Hora (WEST) Temp. Índice de calor Punto de rocío Humedad Presión Visibilidad Wind Dir Velocidad del viento Velocidad de ráfagas Precip Eventos Condiciones
12:00 AM 68.0 ° F - 53.6 ° F 60% 30.15 pul - OSO 6.9 mph - N/A   Despejado
1:00 AM 66 ° F - 53 ° F 54% 30.08 pul 19 mi OSO 8.1 mph - -  
1:00 AM 66.2 ° F - 53.6 ° F 64% 30.12 pul 6.2 mi Oeste 6.9 mph - N/A   Desconocido
1:30 AM 66.2 ° F - 51.8 ° F 60% 30.12 pul 6.2 mi Oeste 8.1 mph - N/A   Desconocido
2:00 AM 66.2 ° F - 51.8 ° F 60% 30.12 pul 6.2 mi Oeste 6.9 mph - N/A   Desconocido
2:30 AM 64.4 ° F - 51.8 ° F 64% 30.12 pul 6.2 mi Variable 1.2 mph - N/A   Desconocido
3:00 AM 64.4 ° F - 50.0 ° F 59% 30.12 pul 6.2 mi SE 3.5 mph - N/A   Desconocido
3:30 AM 62.6 ° F - 53.6 ° F 72% 30.12 pul 6.2 mi ESE 3.5 mph - N/A   Desconocido
4:00 AM 65 ° F - 51 ° F 51% 30.06 pul 19 mi ESE 8.1 mph - -  
4:00 AM 64.4 ° F - 50.0 ° F 59% 30.12 pul - SE 6.9 mph - N/A   Despejado
4:30 AM 64.4 ° F - 53.6 ° F 68% 30.12 pul - SE 5.8 mph - N/A   Despejado
5:00 AM 64.4 ° F - 55.4 ° F 73% 30.12 pul - Variable 1.2 mph - N/A   Despejado
5:30 AM 66.2 ° F - 53.6 ° F 64% 30.12 pul - Sur 3.5 mph - N/A   Despejado
6:00 AM 64.4 ° F - 53.6 ° F 68% 30.12 pul - Sur 3.5 mph - N/A   Despejado
6:30 AM 64.4 ° F - 53.6 ° F 68% 30.12 pul - SSE 5.8 mph - N/A   Despejado
7:00 AM 66 ° F - 52 ° F 51% 30.08 pul 19 mi SSE 8.1 mph - -   Nubes dispersas
7:00 AM 66.2 ° F - 51.8 ° F 60% 30.12 pul - SSE 8.1 mph - N/A   Despejado
7:30 AM 66.2 ° F - 51.8 ° F 60% 30.15 pul - SSE 8.1 mph - N/A   Despejado
8:30 AM 68.0 ° F - 50.0 ° F 52% 30.15 pul - SE 8.1 mph - N/A   Despejado
10:00 AM 77 ° F - 51 ° F 29% 30.08 pul 19 mi SE 6.9 mph - -   Despejado
10:00 AM 77.0 ° F - 51.8 ° F 41% 30.18 pul - SSE 5.8 mph - N/A   Despejado
10:30 AM 80.6 ° F - 48.2 ° F 32% 30.18 pul - SE 6.9 mph - N/A   Despejado
11:00 AM 84.2 ° F - 46.4 ° F 27% 30.18 pul - SE 6.9 mph - N/A   Despejado
11:30 AM 84.2 ° F - 48.2 ° F 29% 30.18 pul - SE 9.2 mph - N/A   Despejado
12:00 PM 84.2 ° F - 51.8 ° F 33% 30.18 pul - ESE 8.1 mph - N/A   Despejado
12:30 PM 87.8 ° F - 51.8 ° F 29% 30.18 pul - Este 8.1 mph - N/A   Despejado
1:00 PM 86 ° F - 49 ° F 18% 30.04 pul 19 mi Este 10.4 mph - -   Despejado
1:00 PM 86.0 ° F - 51.8 ° F 31% 30.18 pul - Este 9.2 mph - N/A   Despejado
2:30 PM 78.8 ° F - 57.2 ° F 47% 30.15 pul - ESE 8.1 mph - N/A   Despejado
3:00 PM 78.8 ° F - 60.8 ° F 54% 30.15 pul 6.2 mi ESE 6.9 mph - N/A   Parcialmente nublado
4:00 PM 80 ° F - 59 ° F 39% 30.02 pul 12 mi ESE 5.8 mph - -   Nublado
4:00 PM 80.6 ° F 81.1 ° F 59.0 ° F 48% 30.12 pul - ESE 5.8 mph - N/A   Despejado
4:30 PM 82.4 ° F 83.4 ° F 62.6 ° F 51% 30.12 pul - ESE 3.5 mph - N/A   Despejado
5:00 PM 82.4 ° F 82.9 ° F 60.8 ° F 48% 30.12 pul - Sin viento Sin viento - N/A   Despejado
5:30 PM 82.4 ° F 83.4 ° F 62.6 ° F 51% 30.15 pul - Variable 2.3 mph - N/A   Despejado
6:00 PM 84.2 ° F 82.8 ° F 53.6 ° F 35% 30.15 pul - Variable 1.2 mph - N/A   Despejado
6:30 PM 84.2 ° F - 46.4 ° F 27% 30.15 pul - Oeste 4.6 mph - N/A   Despejado
7:00 PM 82 ° F - 52 ° F 25% 30.03 pul 14 mi ONO 2.3 mph - -   Nubes dispersas
7:00 PM 82.4 ° F - 50.0 ° F 32% 30.15 pul - Variable 2.3 mph - N/A   Despejado
8:00 PM 77.0 ° F - 48.2 ° F 36% 30.15 pul - Variable 2.3 mph - N/A   Despejado
8:30 PM 78.8 ° F - 42.8 ° F 28% 30.15 pul - Oeste 6.9 mph - N/A   Despejado
9:00 PM 78.8 ° F - 42.8 ° F 28% 30.15 pul - OSO 3.5 mph - N/A   Despejado
9:30 PM 75.2 ° F - 44.6 ° F 34% 30.15 pul - Sin viento Sin viento - N/A   Despejado
10:00 PM 77 ° F - 40 ° F 17% 30.07 pul 14 mi Sin viento Sin viento - -  
10:00 PM 77.0 ° F - 41.0 ° F 28% 30.18 pul - Sin viento Sin viento - N/A   Despejado
10:30 PM 77.0 ° F - 39.2 ° F 26% 30.18 pul - Sin viento Sin viento - N/A   Despejado
11:00 PM 78.8 ° F - 35.6 ° F 21% 30.18 pul - Sin viento Sin viento - N/A   Despejado
11:30 PM 77.0 ° F - 35.6 ° F 22% 30.18 pul 6.2 mi SSE 4.6 mph - N/A   Desconocido